Location: Caltech
(34.1382°N, 118.1253°W)
Time: 08:11:33
(UTC-07:00)

JAS-2 - Visible Passes

Search period start: 18 April 2015 00:00
Search period end: 28 April 2015 00:00
Orbit: 801 x 1321 km, 98.5° (Epoch: 17 April)

Date Brightness Start Highest point End Pass type
(mag) Time Alt. Az. Time Alt. Az. Time Alt. Az.
18 Apr 10.0 04:46:15 10° NNE 04:52:52 63° E 04:58:40 10° S visible
19 Apr 11.8 03:52:42 10° NE 03:57:14 21° E 04:01:39 10° SE visible
19 Apr 9.8 05:36:27 10° N 05:42:52 50° WNW 05:48:28 10° SW visible
20 Apr 10.1 04:41:29 10° NNE 04:47:55 58° E 04:53:35 10° S visible
21 Apr 11.8 03:48:08 10° NE 03:52:14 18° E 03:56:18 10° SE visible
21 Apr 9.7 05:31:37 10° N 05:37:57 53° WNW 05:43:31 10° SSW visible
22 Apr 10.2 04:36:43 10° NNE 04:42:57 52° E 04:48:29 10° S visible
23 Apr 11.8 03:43:38 10° NE 03:47:12 16° E 03:50:52 10° SE visible
23 Apr 9.6 05:26:46 10° N 05:33:02 57° WNW 05:38:33 10° SSW visible
24 Apr 10.3 04:31:57 10° NNE 04:37:58 48° E 04:43:21 10° S visible
25 Apr 11.9 03:39:10 10° ENE 03:42:10 15° E 03:45:23 10° ESE visible
25 Apr 9.5 05:21:54 10° N 05:28:06 61° WNW 05:33:34 10° SSW visible
26 Apr 10.5 04:27:11 10° NNE 04:32:59 43° E 04:38:13 10° SSE visible
27 Apr 11.9 03:34:48 10° ENE 03:37:07 13° E 03:39:45 10° ESE visible
27 Apr 9.4 05:17:02 10° N 05:23:09 66° WNW 05:28:34 10° SSW visible
